Location: Borbetomagus
(49.6328°N, 8.3592°E)
Time: 10:46:15
(UTC+00:00)

SL-8 Rocket - Pass Details

Date: 19 May 2025
Orbit: 955 x 990 km, 82.9° (Epoch: 23 June)

Event Time Altitude Azimuth Distance (km) Brightness Sun altitude
Rises 21:16:02 0° 347° (NNW) 3,656 8.5 -14.9°
Reaches altitude 10° 21:18:35 10° 344° (NNW) 2,702 7.6 -15.1°
Maximum altitude 21:24:37 58° 267° (W) 1,105 4.4 -15.6°
Enters shadow 21:29:41 15° 192° (SSW) 2,350 5.6 -16.0°
